This is the latest recevied weather packets stored in our database for station/object NK0Z-13. If no packets are shown the sender has not sent any weather packets the latest 10 day(s).
| Time | Temp. | Humidity | Pressure | Rain* | Wind** | Luminosity | Snow |
|---|---|---|---|---|---|---|---|
| 1777256164 | 16.67° C | 97% | 1004.8 hPa | 0 mm | - | 0 W/m² | - |
| 1777255562 | 16.67° C | 97% | 1004.4 hPa | 0 mm | - | 0 W/m² | - |
| 1777254961 | 16.67° C | 97% | 1004.7 hPa | 0 mm | - | 0 W/m² | - |
| 1777254361 | 16.67° C | 96% | 1004.4 hPa | 0 mm | - | 0 W/m² | - |
| 1777253759 | 17.22° C | 96% | 1004.4 hPa | 0 mm | - | 0 W/m² | - |
| 1777253160 | 17.22° C | 96% | 1004.6 hPa | 0 mm | - | 1 W/m² | - |
| 1777252554 | 17.22° C | 96% | 1004.8 hPa | 0 mm | - | 3 W/m² | - |
| 1777251949 | 17.22° C | 95% | 1004.8 hPa | 0 mm | - | 6 W/m² | - |
| 1777251349 | 17.78° C | 95% | 1005.3 hPa | 0 mm | - | 10 W/m² | - |
| 1777250747 | 17.78° C | 95% | 1005.4 hPa | 0 mm | - | 18 W/m² | - |
| 1777250144 | 17.78° C | 95% | 1005.5 hPa | 0 mm | - | 35 W/m² | - |
| 1777249543 | 17.78° C | 95% | 1005.5 hPa | 0 mm | - | 38 W/m² | - |
| 1777248937 | 17.22° C | 94% | 1005.5 hPa | 0 mm | - | 41 W/m² | - |
| 1777248336 | 17.78° C | 94% | 1005.3 hPa | 0 mm | - | 62 W/m² | - |
| 1777247731 | 17.22° C | 94% | 1005.4 hPa | 0 mm | - | 94 W/m² | - |
| 1777247126 | 17.22° C | 94% | 1005.7 hPa | 0 mm | - | 88 W/m² | - |
| 1777246524 | 17.22° C | 95% | 1005.8 hPa | 0 mm | - | 91 W/m² | - |
| 1777245920 | 16.67° C | 94% | 1006 hPa | 0 mm | - | 62 W/m² | - |
| 1777245314 | 16.67° C | 94% | 1005.9 hPa | 0 mm | - | 84 W/m² | - |
| 1777244711 | 16.67° C | 94% | 1005.9 hPa | 0 mm | - | 121 W/m² | - |
| 1777244110 | 16.67° C | 93% | 1005.9 hPa | 0 mm | - | 118 W/m² | - |
| 1777243505 | 17.78° C | 93% | 1006 hPa | 0 mm | - | 304 W/m² | - |
| 1777242902 | 16.67° C | 94% | 1006.3 hPa | 0 mm | - | 407 W/m² | - |
| 1777242301 | 16.67° C | 95% | 1006.2 hPa | 0 mm | - | 301 W/m² | - |
| 1777241696 | 16.67° C | 97% | 1006.3 hPa | 0 mm | - | 198 W/m² | - |
* Rain latest hour (hover to see other rain measurements)
** Current wind speed in m/s (hover to see current wind gust speed)